Location: Berville
(49.1893°N, 2.0748°E)
Time: 05:49:22
(UTC+00:00)

SL-16 R/B - Pass Details

Date: 08 February 2023
Orbit: 842 x 846 km, 71.0° (Epoch: 21 March)

Event Time Altitude Azimuth Distance (km) Brightness Sun altitude
Rises 19:04:01 0° 258° (WSW) 3,399 6.8 -20.7°
Reaches altitude 10° 19:07:09 10° 275° (W) 2,468 5.8 -21.2°
Maximum altitude 19:11:13 20° 322° (NW) 1,871 4.4 -21.8°
Drops below altitude 10° 19:15:19 10° 8° (N) 2,477 4.6 -22.5°
Enters shadow 19:17:23 - 21° (NNE) 3,070 4.9 -22.9°
